GW0114 Weather Reports


time (UTC)temp
C
wind
direction
speed
KPH
gust
KPH
rain 1hr
cm
rain 24hr
cm
rain mn
cm
humidity
%
barometer
mb
20260505083548 13 0 0.0 0.0 0.00 0.00 0.00 62 1014.7
20260505083059 13 0 0.0 0.0 0.00 0.00 0.00 62 1014.7
20260505082549 13 0 0.0 0.0 0.00 0.00 0.00 61 1014.7
20260505082049 13 0 0.0 0.0 0.00 0.00 0.00 62 1014.7
20260505081559 13 0 0.0 0.0 0.00 0.00 0.00 62 1014.7
20260505081048 13 0 0.0 0.0 0.00 0.00 0.00 62 1014.7
20260505080548 13 0 0.0 0.0 0.00 0.00 0.00 62 1014.7
20260505080054 13 0 0.0 0.0 0.00 0.00 0.00 62 1014.6
20260505075545 13 0 0.0 0.0 0.00 0.00 0.00 62 1014.6
20260505075049 13 0 0.0 0.0 0.00 0.00 0.00 62 1014.4
20260505074555 13 0 0.0 0.0 0.00 0.00 0.00 62 1014.4
20260505074053 13 0 0.0 0.0 0.00 0.00 0.00 63 1014.5
20260505073549 13 0 0.0 0.0 0.00 0.00 0.00 63 1014.5
20260505073051 13 0 0.0 0.0 0.00 0.00 0.00 63 1014.5
20260505072549 13 0 0.0 0.0 0.00 0.00 0.00 63 1014.5
20260505072049 13 0 0.0 0.0 0.00 0.00 0.00 63 1014.5
20260505071555 13 0 0.0 0.0 0.00 0.00 0.00 64 1014.5
20260505071049 13 0 0.0 3.2 0.00 0.00 0.00 64 1014.6
20260505070549 13 0 0.0 3.2 0.00 0.00 0.00 64 1014.5
20260505070053 13 212 0.0 0.0 0.00 0.00 0.00 63 1014.4
20260505065549 13 0 0.0 0.0 0.00 0.00 0.00 62 1014.4
20260505065048 13 0 0.0 0.0 0.00 0.00 0.00 62 1014.5
20260505064553 13 0 0.0 0.0 0.00 0.00 0.00 62 1014.5
20260505064048 13 0 0.0 0.0 0.00 0.00 0.00 62 1014.5
20260505063549 13 0 0.0 0.0 0.00 0.00 0.00 62 1014.6
20260505063052 14 0 0.0 0.0 0.00 0.00 0.00 62 1014.6
20260505062552 14 0 0.0 0.0 0.00 0.00 0.00 62 1014.6
20260505062051 14 0 0.0 0.0 0.00 0.00 0.00 61 1014.7
20260505061553 14 0 0.0 0.0 0.00 0.00 0.00 61 1014.7
20260505061049 14 0 0.0 0.0 0.00 0.00 0.00 61 1014.7
20260505060549 14 0 0.0 0.0 0.00 0.00 0.00 61 1014.7
20260505060058 15 0 0.0 0.0 0.00 0.00 0.00 61 1014.7
20260505055549 15 0 0.0 0.0 0.00 0.00 0.00 61 1014.7
20260505055049 15 0 0.0 0.0 0.00 0.00 0.00 61 1014.8
20260505054557 15 0 0.0 0.0 0.00 0.00 0.00 60 1014.7
20260505054049 15 0 0.0 0.0 0.00 0.00 0.00 61 1014.9
20260505053550 15 0 0.0 0.0 0.00 0.00 0.00 60 1014.7
20260505053054 15 0 0.0 0.0 0.00 0.00 0.00 60 1014.8
20260505052552 15 0 0.0 0.0 0.00 0.00 0.00 59 1015.0
20260505052048 15 0 0.0 4.8 0.00 0.00 0.00 59 1015.0
20260505051554 15 0 0.0 4.8 0.00 0.00 0.00 59 1015.0
20260505051049 15 0 0.0 0.0 0.00 0.00 0.00 59 1014.8
20260505050551 15 0 0.0 0.0 0.00 0.00 0.00 59 1014.9
20260505041550 15 0 0.0 0.0 0.00 0.00 0.00 58 1014.9
20260505041049 15 0 0.0 0.0 0.00 0.00 0.00 59 1015.0
20260505040551 15 0 0.0 0.0 0.00 0.00 0.00 59 1015.0
20260505040059 15 0 0.0 0.0 0.00 0.00 0.00 59 1014.9
20260505035548 15 0 0.0 0.0 0.00 0.00 0.00 59 1015.0
20260505035049 15 0 0.0 0.0 0.00 0.00 0.00 59 1015.1
20260505034552 15 0 0.0 0.0 0.00 0.00 0.00 59 1015.1
20260505034045 15 0 0.0 0.0 0.00 0.00 0.00 59 1015.1
20260505033545 15 0 0.0 0.0 0.00 0.00 0.00 59 1015.1
20260505033051 15 0 0.0 0.0 0.00 0.00 0.00 59 1015.2
20260505032544 15 0 0.0 0.0 0.00 0.00 0.00 58 1015.2
20260505032048 16 0 0.0 0.0 0.00 0.00 0.00 57 1015.2
20260505031558 16 0 0.0 0.0 0.00 0.00 0.00 58 1015.1
20260505031048 16 0 0.0 0.0 0.00 0.00 0.00 58 1015.2
20260505030545 16 0 0.0 0.0 0.00 0.00 0.00 58 1015.2
20260505030058 16 0 0.0 0.0 0.00 0.00 0.00 57 1015.2
20260505025549 16 0 0.0 0.0 0.00 0.00 0.00 58 1015.2
20260505025049 16 0 0.0 0.0 0.00 0.00 0.00 57 1015.1
20260505024554 16 0 0.0 0.0 0.00 0.00 0.00 58 1015.2
20260505024048 16 0 0.0 0.0 0.00 0.00 0.00 57 1015.2
20260505023545 16 0 0.0 0.0 0.00 0.00 0.00 57 1015.1
20260505023052 16 0 0.0 0.0 0.00 0.00 0.00 56 1015.1
20260505022549 16 0 0.0 0.0 0.00 0.00 0.00 56 1015.1
20260505022049 16 0 0.0 0.0 0.00 0.00 0.00 56 1015.0
20260505021549 16 0 0.0 0.0 0.00 0.00 0.00 56 1015.0
20260505021048 17 0 0.0 0.0 0.00 0.00 0.00 56 1015.0
20260505020553 17 0 0.0 0.0 0.00 0.00 0.00 56 1014.9
20260505020055 17 0 0.0 1.6 0.00 0.00 0.00 56 1014.8
20260505015549 17 0 0.0 1.6 0.00 0.00 0.00 55 1014.7
20260505015049 17 0 0.0 1.6 0.00 0.00 0.00 54 1014.7
20260505014603 17 0 0.0 0.0 0.00 0.00 0.00 55 1014.6
20260505014049 17 0 0.0 0.0 0.00 0.00 0.00 54 1014.5
20260505013545 17 0 0.0 0.0 0.00 0.00 0.00 53 1014.5
20260505013049 17 0 0.0 0.0 0.00 0.00 0.00 53 1014.3
20260505012545 17 0 0.0 0.0 0.00 0.00 0.00 53 1014.4
20260505012049 18 0 0.0 0.0 0.00 0.00 0.00 52 1014.4
20260505011553 18 0 0.0 0.0 0.00 0.00 0.00 51 1014.2
20260505011049 18 0 0.0 4.8 0.00 0.00 0.00 51 1014.2
20260505010548 18 0 0.0 4.8 0.00 0.00 0.00 51 1014.2
20260505010055 18 221 0.0 0.0 0.00 0.00 0.00 51 1014.1
20260505005549 18 0 0.0 1.6 0.00 0.00 0.00 50 1014.2
20260505005048 18 0 0.0 1.6 0.00 0.00 0.00 50 1014.1
20260505004556 18 0 0.0 1.6 0.00 0.00 0.00 48 1014.0
20260505004050 19 0 0.0 0.0 0.00 0.00 0.00 48 1014.0
20260505003548 19 0 0.0 0.0 0.00 0.00 0.00 47 1013.7
20260505003053 19 0 0.0 0.0 0.00 0.00 0.00 47 1013.7
20260505002549 20 0 0.0 0.0 0.00 0.00 0.00 46 1013.6
20260505002048 20 0 0.0 0.0 0.00 0.00 0.00 46 1013.6
20260505001552 20 0 0.0 0.0 0.00 0.00 0.00 46 1013.5
20260505001047 20 0 0.0 3.2 0.00 0.00 0.00 45 1013.5
20260505000545 20 0 0.0 3.2 0.00 0.00 0.00 45 1013.5
20260505000056 20 0 0.0 0.0 0.00 0.00 0.00 44 1013.6
20260504235550 21 0 0.0 0.0 0.00 0.00 0.00 43 1013.6
20260504235050 21 0 0.0 4.8 0.00 0.00 0.00 43 1013.4
20260504234552 21 0 0.0 4.8 0.00 0.00 0.00 43 1013.4
20260504234049 21 0 0.0 0.0 0.00 0.00 0.00 43 1013.4
20260504233545 21 0 0.0 0.0 0.00 0.00 0.00 42 1013.4
20260504233051 22 0 0.0 0.0 0.00 0.00 0.00 42 1013.3
20260504232549 22 0 0.0 0.0 0.00 0.00 0.00 42 1013.3
20260504232049 22 0 0.0 0.0 0.00 0.00 0.00 40 1013.2
20260504231550 22 0 0.0 0.0 0.00 0.00 0.00 42 1013.4
20260504231048 22 0 0.0 0.0 0.00 0.00 0.00 40 1013.3
20260504230549 22 0 0.0 0.0 0.00 0.00 0.00 41 1013.2
20260504230056 22 0 0.0 0.0 0.00 0.00 0.00 40 1013.2
20260504225550 22 0 0.0 0.0 0.00 0.00 0.00 41 1013.2
20260504225048 22 0 0.0 6.4 0.00 0.00 0.00 42 1013.2
20260504224553 22 0 0.0 6.4 0.00 0.00 0.00 40 1013.1
20260504224053 22 0 0.0 6.4 0.00 0.00 0.00 40 1013.1
20260504223552 22 0 0.0 0.0 0.00 0.00 0.00 39 1013.2
20260504223051 22 0 0.0 0.0 0.00 0.00 0.00 38 1013.2
20260504222552 22 0 0.0 0.0 0.00 0.00 0.00 38 1013.2
20260504222049 22 0 0.0 0.0 0.00 0.00 0.00 37 1013.2
20260504221552 22 0 0.0 0.0 0.00 0.00 0.00 37 1013.2
20260504221049 22 0 0.0 0.0 0.00 0.00 0.00 36 1013.2
20260504220548 22 0 0.0 0.0 0.00 0.00 0.00 37 1013.3
20260504220052 22 0 0.0 0.0 0.00 0.00 0.00 37 1013.3
20260504215551 22 0 0.0 0.0 0.00 0.00 0.00 35 1013.4
20260504215048 22 0 0.0 0.0 0.00 0.00 0.00 37 1013.3
20260504214603 22 0 0.0 0.0 0.00 0.00 0.00 37 1013.4
20260504214048 22 0 0.0 0.0 0.00 0.00 0.00 34 1013.3
20260504213548 22 0 0.0 6.4 0.00 0.00 0.00 35 1013.3
20260504213049 22 0 0.0 6.4 0.00 0.00 0.00 35 1013.3
20260504212545 22 0 0.0 0.0 0.00 0.00 0.00 35 1013.4
20260504212047 22 0 0.0 0.0 0.00 0.00 0.00 34 1013.3
20260504211549 22 0 0.0 6.4 0.00 0.00 0.00 32 1013.3
20260504211046 22 0 0.0 6.4 0.00 0.00 0.00 35 1013.4
20260504210548 22 0 0.0 6.4 0.00 0.00 0.00 32 1013.2
20260504205549 22 0 0.0 0.0 0.00 0.00 0.00 34 1013.3
20260504205051 22 0 0.0 0.0 0.00 0.00 0.00 34 1013.4
20260504204610 22 0 0.0 0.0 0.00 0.00 0.00 35 1013.4
20260504204045 22 0 0.0 0.0 0.00 0.00 0.00 33 1013.5
20260504203548 22 0 0.0 1.6 0.00 0.00 0.00 34 1013.4
20260504203124 22 0 0.0 1.6 0.00 0.00 0.00 32 1013.5
20260504202545 22 0 0.0 1.6 0.00 0.00 0.00 33 1013.5
20260504202046 22 0 0.0 0.0 0.00 0.00 0.00 32 1013.5
20260504201556 22 0 0.0 0.0 0.00 0.00 0.00 31 1013.5
20260504201048 22 0 0.0 0.0 0.00 0.00 0.00 32 1013.6
20260504200548 22 0 0.0 0.0 0.00 0.00 0.00 36 1013.7
20260504200053 22 0 0.0 0.0 0.00 0.00 0.00 35 1013.7
20260504195548 22 0 0.0 0.0 0.00 0.00 0.00 32 1013.9
20260504195047 22 0 0.0 6.4 0.00 0.00 0.00 34 1014.0
20260504194552 22 0 0.0 6.4 0.00 0.00 0.00 37 1014.0
20260504194049 22 0 0.0 3.2 0.00 0.00 0.00 36 1014.2
20260504193548 22 0 0.0 0.0 0.00 0.00 0.00 38 1014.2
20260504193053 22 0 0.0 0.0 0.00 0.00 0.00 37 1014.4
20260504192551 22 0 0.0 0.0 0.00 0.00 0.00 37 1014.5
20260504192048 22 0 0.0 0.0 0.00 0.00 0.00 41 1014.5
20260504191558 22 0 0.0 0.0 0.00 0.00 0.00 39 1014.5
20260504191050 22 0 0.0 0.0 0.00 0.00 0.00 39 1014.5
20260504190550 22 0 0.0 0.0 0.00 0.00 0.00 39 1014.6
20260504190056 22 0 0.0 0.0 0.00 0.00 0.00 36 1014.7
20260504185550 22 0 0.0 0.0 0.00 0.00 0.00 39 1014.6
20260504185050 22 0 0.0 0.0 0.00 0.00 0.00 39 1014.7
20260504184602 22 0 0.0 0.0 0.00 0.00 0.00 37 1014.7
20260504184050 22 0 0.0 0.0 0.00 0.00 0.00 35 1014.8
20260504183550 22 0 0.0 0.0 0.00 0.00 0.00 36 1014.9
20260504183100 22 0 0.0 0.0 0.00 0.00 0.00 37 1015.0
20260504182550 23 0 0.0 0.0 0.00 0.00 0.00 36 1015.0
20260504182049 23 0 0.0 0.0 0.00 0.00 0.00 40 1015.0
20260504181554 23 0 0.0 0.0 0.00 0.00 0.00 39 1015.1
20260504181050 23 0 0.0 0.0 0.00 0.00 0.00 36 1015.2
20260504180552 24 0 0.0 0.0 0.00 0.00 0.00 36 1015.3
20260504180106 24 0 0.0 0.0 0.00 0.00 0.00 35 1015.4
20260504175550 24 0 0.0 0.0 0.00 0.00 0.00 37 1015.5
20260504175052 24 0 0.0 0.0 0.00 0.00 0.00 35 1015.5
20260504174550 24 0 0.0 0.0 0.00 0.00 0.00 35 1015.6
20260504174050 23 0 0.0 0.0 0.00 0.00 0.00 42 1015.5
20260504173550 23 0 0.0 0.0 0.00 0.00 0.00 40 1015.6
20260504173106 23 0 0.0 0.0 0.00 0.00 0.00 38 1015.7
20260504172550 23 0 0.0 0.0 0.00 0.00 0.00 40 1015.7
20260504172051 23 0 0.0 0.0 0.00 0.00 0.00 37 1015.8
20260504171559 23 0 0.0 0.0 0.00 0.00 0.00 38 1015.9
20260504171050 23 0 0.0 0.0 0.00 0.00 0.00 41 1015.9
20260504170551 23 0 0.0 0.0 0.00 0.00 0.00 42 1015.9
20260504151050 13 0 0.0 0.0 0.00 0.00 0.00 68 1017.7
20260504150550 13 0 0.0 0.0 0.00 0.00 0.00 70 1017.9
20260504141050 8 0 0.0 0.0 0.00 0.00 0.00 78 1018.1
20260504140550 8 0 0.0 0.0 0.00 0.00 0.00 80 1018.1
20260504130550 5 0 0.0 0.0 0.00 0.00 0.00 87 1017.9
20260504110549 3 0 0.0 0.0 0.00 0.00 0.00 83 1016.8
20260504100550 3 0 0.0 0.0 0.00 0.00 0.00 82 1017.2